DW0231 Weather Reports


Display with metric or nautical units.
time (UTC)temp
F
wind
direction
speed
MPH
gust
MPH
rain 1hr
in
rain 24hr
in
rain mn
in
humidity
%
barometer
mb
20260905134552 68 173 1.0 0.0 0.00 0.00 0.00 30 1006.3
20260905133126 69 210 1.0 0.0 0.00 0.00 0.00 30 1006.1
20260905131610 69 219 1.0 0.0 0.00 0.00 0.00 29 1006.1
20260905130029 69 198 1.0 0.0 0.00 0.00 0.00 28 1005.9
20260905124625 69 207 1.0 0.0 0.00 0.00 0.00 28 1005.7
20260905123021 70 246 0.0 0.0 0.00 0.00 0.00 27 1005.6
20260905121510 71 247 0.0 0.0 0.00 0.00 0.00 26 1005.4
20260905120114 72 248 1.0 0.0 0.00 0.00 0.00 26 1005.4
20260905114556 72 251 2.0 0.0 0.00 0.00 0.00 24 1005.3
20260905113050 72 202 2.0 0.0 0.00 0.00 0.00 25 1005.3
20260905111502 72 192 1.0 0.0 0.00 0.00 0.00 25 1005.2
20260905110119 72 205 1.0 0.0 0.00 0.00 0.00 25 1005.2
20260905104607 73 196 1.0 0.0 0.00 0.00 0.00 26 1005.3
20260905103029 74 196 2.0 0.0 0.00 0.00 0.00 25 1005.2
20260905101621 74 182 1.0 0.0 0.00 0.00 0.00 26 1005.1
20260905100058 75 232 3.0 0.0 0.00 0.00 0.00 26 1004.8
20260905094524 74 198 1.0 0.0 0.00 0.00 0.00 28 1004.8
20260905093124 74 155 1.0 0.0 0.00 0.00 0.00 29 1004.5
20260905091607 75 294 3.0 0.0 0.00 0.00 0.00 30 1004.5
20260905090041 75 233 2.0 0.0 0.00 0.00 0.00 30 1004.1
20260905084538 75 230 3.0 0.0 0.00 0.00 0.00 30 1004.0
20260905083117 76 195 3.0 0.0 0.00 0.00 0.00 30 1003.8
20260905081536 76 198 3.0 0.0 0.00 0.00 0.00 29 1003.8
20260905080132 76 214 2.0 0.0 0.00 0.00 0.00 28 1003.8
20260905074619 77 196 3.0 0.0 0.00 0.00 0.00 28 1003.8
20260905073102 77 213 5.0 0.0 0.00 0.00 0.00 28 1003.5
20260905071543 77 209 3.0 0.0 0.00 0.00 0.00 28 1003.4
20260905070026 77 247 2.0 0.0 0.00 0.00 0.00 28 1003.3
20260905064612 77 201 3.0 0.0 0.00 0.00 0.00 28 1003.0
20260905063112 78 202 2.0 0.0 0.00 0.00 0.00 28 1002.9
20260905061613 78 202 4.0 0.0 0.00 0.00 0.00 27 1002.7
20260905060059 79 182 4.0 0.0 0.00 0.00 0.00 26 1002.6
20260905054538 79 192 2.0 0.0 0.00 0.00 0.00 26 1002.5
20260905053125 79 214 4.0 0.0 0.00 0.00 0.00 26 1002.3
20260905051605 80 199 3.0 0.0 0.00 0.00 0.00 25 1002.1
20260905050046 80 182 4.0 0.0 0.00 0.00 0.00 24 1002.0
20260905044503 79 186 4.0 0.0 0.00 0.00 0.00 24 1002.0
20260905043106 78 199 3.0 0.0 0.00 0.00 0.00 25 1001.8
20260905041543 78 217 1.0 0.0 0.00 0.00 0.00 27 1002.1
20260905040032 79 196 2.0 0.0 0.00 0.00 0.00 26 1001.8
20260905034624 79 219 2.0 0.0 0.00 0.00 0.00 27 1001.7
20260905033119 79 222 1.0 0.0 0.00 0.00 0.00 28 1001.7
20260905031611 80 254 2.0 0.0 0.00 0.00 0.00 28 1001.4
20260905030126 81 252 2.0 0.0 0.00 0.00 0.00 26 1001.1
20260905024556 81 206 2.0 0.0 0.00 0.00 0.00 26 1000.8
20260905023014 81 213 3.0 0.0 0.00 0.00 0.00 26 1000.7
20260905021609 80 198 1.0 0.0 0.00 0.00 0.00 26 1000.6
20260905020018 81 207 1.0 0.0 0.00 0.00 0.00 26 1000.4
20260905014623 82 202 2.0 0.0 0.00 0.00 0.00 25 1000.4
20260905013105 83 204 4.0 0.0 0.00 0.00 0.00 24 1000.3
20260905011528 84 190 4.0 0.0 0.00 0.00 0.00 23 1000.1
20260905010119 85 213 3.0 0.0 0.00 0.00 0.00 23 1000.3
20260905004612 85 222 3.0 0.0 0.00 0.00 0.00 22 1000.4
20260905003023 85 206 4.0 0.0 0.00 0.00 0.00 21 1000.1
20260905001502 86 192 7.0 0.0 0.00 0.00 0.00 20 1000.0
20260905000148 86 206 5.0 0.0 0.00 0.00 0.00 20 1000.0
20260904234601 86 167 6.0 0.0 0.00 0.00 0.00 20 1000.1
20260904233033 87 221 8.0 0.0 0.00 0.00 0.00 19 1000.2
20260904231534 87 206 6.0 0.0 0.00 0.00 0.00 20 1000.3
20260904230122 87 212 7.0 0.0 0.00 0.00 0.00 20 1000.5
20260904224548 87 225 6.0 0.0 0.00 0.00 0.00 19 1000.6
20260904223137 87 203 7.0 0.0 0.00 0.00 0.00 19 1000.8
20260904221505 87 175 7.0 0.0 0.00 0.00 0.00 19 1000.8
20260904220107 87 227 6.0 0.0 0.00 0.00 0.00 18 1001.2
20260904214505 86 219 7.0 0.0 0.00 0.00 0.00 18 1001.3
20260904213017 86 211 6.0 0.0 0.00 0.00 0.00 19 1001.4
20260904211612 86 191 6.0 0.0 0.00 0.00 0.00 19 1001.5
20260904210034 85 198 6.0 0.0 0.00 0.00 0.00 20 1002.1
20260904204624 85 216 7.0 0.0 0.00 0.00 0.00 20 1002.2
20260904203044 85 188 6.0 0.0 0.00 0.00 0.00 22 1002.1
20260904201640 84 215 5.0 0.0 0.00 0.00 0.00 22 1002.0
20260904200100 83 200 6.0 0.0 0.00 0.00 0.00 22 1002.5
20260904194623 83 202 7.0 0.0 0.00 0.00 0.00 23 1002.8
20260904193041 82 181 6.0 0.0 0.00 0.00 0.00 24 1002.8
20260904191624 81 211 7.0 0.0 0.00 0.00 0.00 24 1003.0
20260904190114 81 229 7.0 0.0 0.00 0.00 0.00 25 1003.5
20260904184515 81 178 6.0 0.0 0.00 0.00 0.00 25 1003.7
20260904183116 80 186 6.0 0.0 0.00 0.00 0.00 27 1003.7
20260904181558 79 218 6.0 0.0 0.00 0.00 0.00 26 1003.9
20260904180017 79 211 6.0 0.0 0.00 0.00 0.00 26 1003.9
20260904174506 79 199 6.0 0.0 0.00 0.00 0.00 27 1003.8
20260904173109 78 225 5.0 0.0 0.00 0.00 0.00 28 1003.9
20260904171612 78 192 6.0 0.0 0.00 0.00 0.00 27 1004.0
20260904170135 78 222 6.0 0.0 0.00 0.00 0.00 27 1003.9
20260904164634 77 196 5.0 0.0 0.00 0.00 0.00 27 1003.9
20260904163026 77 217 6.0 0.0 0.00 0.00 0.00 27 1004.0
20260904161637 76 190 7.0 0.0 0.00 0.00 0.00 27 1004.1
20260904160116 76 204 6.0 0.0 0.00 0.00 0.00 28 1003.9
20260904154547 76 224 7.0 0.0 0.00 0.00 0.00 29 1003.9
20260904153102 75 207 7.0 0.0 0.00 0.00 0.00 29 1003.8
20260904151510 75 219 6.0 0.0 0.00 0.00 0.00 30 1003.8
20260904150108 74 196 6.0 0.0 0.00 0.00 0.00 30 1003.9
20260904144603 73 171 7.0 0.0 0.00 0.00 0.00 32 1004.0
20260904143006 73 211 6.0 0.0 0.00 0.00 0.00 30 1004.2
20260904141615 72 213 6.0 0.0 0.00 0.00 0.00 31 1004.2